ATLAS 5 CENTAUR DEB, 43951

Orbit data source: Space-Track

ATLAS 5 CENTAUR DEB, 43951 is space debris in HEO originally from a launch on Wed, 17 Sep 2014 UTC launched from the Air Force Eastern Test Range (AFETR). Debris objects in space refer to the collection of defunct objects orbiting the Earth. Examples of debris include non-operational satellites, rocket bodies, and fragments generated from explosions, collisions, or faulty payload assembly.

Loading next visibility...
Identifier
43951, 2014-055E
Orbit
HEO
Country
Flag of USUS
Related business
Flag of USUnited Launch Alliance/Lockheed Martin (US)
Manufacturer
Unknown
Mission
Spacecraft
Bus & Motor
Unknown
Mass
Unknown
Launch date (UTC)
2014-09-17 (12 years ago)
Launch vehicle
Unknown
Launch site
Air Force Eastern Test Range (AFETR)
Object type
Payload
Rocket body
Debris
Shape & HBR
Unknown shape, 1.1 m
Radar Cross Section
Medium (>0.1 m² and <1 m²)

Expand to show TLE details & history
Last TLE update: 5 days ago

TLE from 5 days ago
0 ATLAS 5 CENTAUR DEB
1 43951U 14055E   26168.71098801 -.00000083  00000-0  00000-0 0  9996
2 43951  20.6391 123.6489 4859217 203.4426 123.6814  1.89445549 53906
Epoch: 2026-06-17T17:03Z
TLE epoch observation values (Epoch: 2026-06-17T17:03:49.364Z)
Latitude
0.00001°
Longitude
-38.32973°
Altitude
31,663.552 km
Speed
2.551 km/s
True Right ascension
08h 14m 21s
True Declination
0° 00' 00"
Sunlit
Object was in daylight at epoch
Visualization orbit readout
Latitude
Unknown
Longitude
Unknown
Altitude
Unknown
Speed
Unknown
Apparent Right ascension
Unknown
Apparent Declination
Unknown
Sunlit
N/A
Visualization observer readout
Local Sidereal Time
21:47:22
Azimuth
Unknown
Elevation
Unknown
Doppler factor
Unknown
Orbital elements
Apogee altitude
34,620.78 km
Perigee altitude
7,806.092 km
Semi-major axis
27,591.573 km
Eccentricity
0.48592
Inclination
20.6391°
RAAN
123.6489°
Arg. of periapsis
203.4426°
True anomaly
156.56153°
Mean anomaly
123.6814°
Eccentric anomaly
141.14693°
Mean motion
0.47356 °/min
Orbital period
760.19 mins
BSTAR
0
Loading maneuver chart data...
Computing Atmospheric mass density...

Documentation

Showing up to 5 results
|